Muscle Shoals, AL

4:26 AM CST on December 09, 2019 (GMT -0600)
Northwest Alabama Regional

Weather History for KMSL - October, 2019

Change the Weather History Date:

Wednesday, October 16, 2019

  Actual Average Record
Temperature  
Mean Temperature 60 °F 62 °F  
Max Temperature 69 °F 74 °F 89 °F (1924)
Min Temperature 50 °F 50 °F 32 °F (1893)
Degree Days  
Heating Degree Days 5 5  
Month to date heating degree days 31 53  
Since 1 July heating degree days 31 68  
Cooling Degree Days 0 2  
Month to date cooling degree days 130 44  
Year to date cooling degree days 2488 1846  
Growing Degree Days 9 (Base 50)    
Moisture  
Dew Point 53 °F    
Average Humidity 64    
Maximum Humidity 93    
Minimum Humidity 35    
Precipitation  
Precipitation 0.17 in 0.10 in 3.80 in (1932)
Month to date precipitation 1.41 1.68  
Year to date precipitation 47.93 41.11  
Snow  
Snow 0.00 in - - ()
Month to date snowfall 0.0  
Since 1 July snowfall 0.0  
Since 1 September snowfall 0.0  
Snow Depth 0.00 in    
Sea Level Pressure  
Sea Level Pressure 29.93 in    
Wind  
Wind Speed 8 mph (NW)    
Max Wind Speed 20 mph    
Max Gust Speed 30 mph    
Visibility 9 miles    
Events Rain    
T = Trace of Precipitation, MM = Missing Value Source: NWS Daily Summary

Daily Weather History Graph

Daily Weather History Graph

Search for Another Location

Airport or City:

Astronomy

Oct. 16, 2019 Rise Set
Actual Time 6:56 AM CDT 6:14 PM CDT
Civil Twilight 6:31 AM CDT 6:40 PM CDT
Nautical Twilight 6:02 AM CDT 7:09 PM CDT
Astronomical Twilight 5:32 AM CDT 7:38 PM CDT
Moon 8:13 PM CDT (10/16) 9:22 AM CDT (10/16)
Length of Visible Light 12h 08m
Length of Day
11h 17m
Waning Gibbous, 92% of the Moon is Illuminated
Oct 16
Waning Gibbous
Oct 21
Last Quarter
Oct 27
New
Nov 4
First Quarter
Nov 12
Full

Hourly Weather History & Observations

Time (CDT) Temp. Dew Point Humidity Pressure Visibility Wind Dir Wind Speed Gust Speed Precip Events Conditions
12:37 AM 68.0 °F 66.0 °F 93% 29.87 in 5.0 mi Calm Calm - N/A   Overcast
12:46 AM 68.0 °F 66.0 °F 93% 29.86 in 6.0 mi Calm Calm - N/A   Overcast
12:53 AM 68.0 °F 66.0 °F 93% 29.85 in 6.0 mi Calm Calm - N/A   Overcast
1:14 AM 68.0 °F 66.0 °F 93% 29.86 in 5.0 mi WSW 3.5 mph - N/A   Overcast
1:53 AM 68.0 °F 66.0 °F 93% 29.83 in 6.0 mi West 6.9 mph - N/A   Overcast
2:35 AM 68.0 °F 66.0 °F 93% 29.85 in 10.0 mi West 8.1 mph - N/A   Overcast
2:53 AM 68.0 °F 66.0 °F 93% 29.83 in 10.0 mi West 6.9 mph - N/A   Overcast
3:41 AM 66.0 °F 63.0 °F 90% 29.84 in 5.0 mi WNW 6.9 mph 16.1 mph 0.08 in Rain Light Rain
3:53 AM 66.0 °F 62.1 °F 87% 29.82 in 10.0 mi West 3.5 mph - 0.08 in Rain Light Rain
4:53 AM 66.0 °F 63.0 °F 90% 29.84 in 6.0 mi WNW 10.4 mph - 0.08 in Rain Light Rain
5:09 AM 64.9 °F 63.0 °F 93% 29.85 in 10.0 mi WNW 10.4 mph - 0.00 in   Overcast
5:11 AM 64.9 °F 63.0 °F 93% 29.85 in 10.0 mi WNW 8.1 mph - 0.00 in   Overcast
5:28 AM 64.9 °F 62.1 °F 90% 29.86 in 10.0 mi NW 11.5 mph - 0.00 in   Overcast
5:53 AM 64.9 °F 62.1 °F 90% 29.85 in 10.0 mi NW 9.2 mph - 0.00 in   Overcast
6:51 AM 59.0 °F 51.8 °F 77% 29.91 in 10.0 mi North 11.5 mph 29.9 mph 0.01 in   Overcast
6:52 AM 59.0 °F 52.0 °F 78% 29.90 in 10.0 mi North 10.4 mph 29.9 mph 0.01 in   Overcast
7:53 AM 57.9 °F 51.1 °F 78% 29.93 in 10.0 mi North 8.1 mph - N/A   Overcast
8:53 AM 59.0 °F 51.1 °F 75% 29.96 in 10.0 mi NNE 4.6 mph - N/A   Overcast
9:53 AM 60.1 °F 48.9 °F 67% 29.99 in 10.0 mi NNW 11.5 mph - N/A   Mostly Cloudy
10:05 AM 60.1 °F 48.0 °F 64% 30.00 in 10.0 mi NW 11.5 mph - N/A   Scattered Clouds
10:53 AM 61.0 °F 46.0 °F 58% 30.01 in 10.0 mi NNW 11.5 mph 19.6 mph N/A   Clear
11:53 AM 63.0 °F 45.0 °F 52% 30.00 in 10.0 mi NNW 9.2 mph - N/A   Clear
12:53 PM 64.0 °F 44.1 °F 48% 30.00 in 10.0 mi Variable 5.8 mph - N/A   Clear
1:53 PM 66.0 °F 42.1 °F 42% 29.98 in 10.0 mi NW 6.9 mph - N/A   Clear
2:53 PM 68.0 °F 39.9 °F 36% 29.98 in 10.0 mi WNW 9.2 mph - N/A   Clear
3:53 PM 68.0 °F 39.0 °F 35% 29.99 in 10.0 mi NW 12.7 mph - N/A   Clear
4:53 PM 66.0 °F 39.9 °F 38% 29.99 in 10.0 mi NW 11.5 mph - N/A   Clear
5:53 PM 62.1 °F 42.1 °F 48% 30.01 in 10.0 mi NW 6.9 mph - N/A   Clear
6:53 PM 57.9 °F 42.1 °F 56% 30.01 in 10.0 mi NW 4.6 mph - N/A   Clear
7:53 PM 57.0 °F 42.1 °F 57% 30.03 in 10.0 mi North 8.1 mph - N/A   Clear
8:53 PM 55.0 °F 42.1 °F 62% 30.03 in 10.0 mi NNW 4.6 mph - N/A   Clear
9:53 PM 53.1 °F 43.0 °F 69% 30.05 in 10.0 mi NNW 4.6 mph - N/A   Clear
10:53 PM 50.0 °F 44.1 °F 80% 30.07 in 10.0 mi NW 4.6 mph - N/A   Clear
11:53 PM 51.1 °F 43.0 °F 74% 30.06 in 10.0 mi NNW 3.5 mph - N/A   Clear